Track ONEWEB-0184 now! 10-day predictions ONEWEB-0184 is classified as:
1 48211U 21031B 22141.50647336 .00050975 00000-0 13595+0 0 9995 2 48211 87.9040 225.3472 0002669 143.8183 216.3128 13.14878259 52842